Погода в Пулавах

Польша     51°25′02″N   21°58′20″E
темп.,
°C
ветер,
м/с
пор.,
м/с
влажн.,
%
обл.,
%
осадки,
мм/ч
давл.,
гПа
погр.,
м
28 февраля, вс
вс2801:000сз410910 0.0 1033365
04:00−1зсз39910 0.0 1033298
07:000зсз498646 0.0 1033331
10:00+4з596623 0.0 1031481
13:00+7зсз6106724 0.0 1030846
16:00+6сз7117645 0.0 1029962
19:00+3сз5118672 0.0 1029653
22:00+3сз5118897 0.0 1030589
1 марта, пн
пн101:00+2ссз379298 0.0 1032416
04:00+2сз359599 0.0 1032238
07:00+1сз249599 0.0 1034218
10:00+3зсз2387100 0.0 1034380
13:00+6з237494 0.0 1035552
16:00+7зсз357336 0.0 1033424
19:00+4зсз238819 0.0 103445
22:00+3з36910 0.0 1033133
2 марта, вт
вт201:00+2зюз38910 0.0 1033200
04:00+2з411910 0.0 1032279
07:00+1з411920 0.0 1031297
10:00+6зсз59730 0.0 1032544
13:00+9зсз58630 0.0 1031807
16:00+8зсз48680 0.0 1029720
19:00+5зсз39840 0.0 1030258
22:00+3зсз24940 0.0 103187
3 марта, ср
ср301:00+2зсз23971 0.0 103158
04:00+1зсз229818 0.0 103132
07:00+1зсз229930 0.0 103160
10:00+5з238255 0.0 1031335
13:00+8зюз237039 0.0 1029628
16:00+8з136368 0.0 1027155
19:00+5зюз227534 0.0 102622
22:00+3зюз22830 0.0 102622
4 марта, чт
чт401:00+2юз23870 0.0 102324
04:00+1юз23850 0.0 102140
07:00+2юз36810 0.0 1019124
10:00+7юз477096 0.0 1017392
13:00+11зюз585860 0.0 1014856
16:00+10зюз386598 0.0 1012674
19:00+7зюз387999 0.0 1011198
22:00+7юз41095100 2.4 1009495